Weather History for KTIK - November, 2012

Change the Weather History Date:

Thursday, November 29, 2012

  Actual Average Record
Temperature  
Mean Temperature 56 °F -  
Max Temperature 68 °F 53 °F 74 °F (2014)
Min Temperature 43 °F 35 °F 23 °F (2001)
Degree Days  
Heating Degree Days 10    
Growing Degree Days 6 (Base 50)    
Moisture  
Dew Point 37 °F    
Average Humidity 54    
Maximum Humidity 76    
Minimum Humidity 33    
Precipitation  
Precipitation 0.00 in - - ()
Sea Level Pressure  
Sea Level Pressure 30.08 in    
Wind  
Wind Speed 16 mph (South)    
Max Wind Speed 22 mph    
Max Gust Speed 26 mph    
Visibility 10 miles    
Events      
Averages and records for this station are not official NWS values.
T = Trace of Precipitation, MM = Missing Value Source: NWS Daily Summary

Daily Weather History Graph

Daily Weather History Graph

Search for Another Location

Airport or City:

Trip Planner

Search our weather history database for the weather conditions in past years. The results will help you decide how hot, cold, wet, or windy it might be!

Date:

Astronomy

Nov. 29, 2012 Rise Set
Actual Time 7:18 AM CST 5:17 PM CST
Civil Twilight 6:51 AM CST 5:44 PM CST
Nautical Twilight 6:19 AM CST 6:16 PM CST
Astronomical Twilight 5:48 AM CST 6:47 PM CST
Moon 6:21 PM CST (11/29) 8:06 AM CST (11/29)
Length of Visible Light 10h 53m
Length of Day
9h 58m
Full, 99% of the Moon is Illuminated
Nov 29
Full
Dec 6
Last Quarter
Dec 13
New
Dec 19
First Quarter
Dec 28
Full

Hourly Weather History & Observations

Time (CST) Temp. Windchill Dew Point Humidity Pressure Visibility Wind Dir Wind Speed Gust Speed Precip Events Conditions
12:55 AM 49.3 °F - 35.4 °F 59% 30.17 in 10.0 mi South 16.1 mph - N/A   Clear
1:55 AM 48.4 °F - 35.4 °F 61% 30.16 in 10.0 mi South 17.3 mph - N/A   Clear
2:55 AM 47.3 °F - 35.4 °F 63% 30.15 in 10.0 mi South 13.8 mph - N/A   Clear
3:55 AM 46.6 °F - 35.6 °F 66% 30.15 in 10.0 mi South 16.1 mph - N/A   Clear
4:55 AM 45.1 °F 38.8 °F 36.1 °F 71% 30.14 in 10.0 mi South 13.8 mph - N/A   Clear
5:55 AM 44.4 °F 37.9 °F 36.1 °F 73% 30.14 in 10.0 mi South 13.8 mph - N/A   Clear
6:55 AM 43.7 °F 36.9 °F 36.5 °F 76% 30.14 in 10.0 mi South 13.8 mph - N/A   Clear
7:55 AM 44.4 °F 37.2 °F 36.7 °F 74% 30.14 in 10.0 mi South 16.1 mph - N/A   Clear
8:55 AM 48.2 °F - 38.1 °F 68% 30.12 in 10.0 mi South 17.3 mph 24.2 mph N/A   Clear
9:55 AM 53.6 °F - 40.3 °F 61% 30.12 in 10.0 mi South 21.9 mph 26.5 mph N/A   Clear
10:55 AM 57.9 °F - 41.5 °F 54% 30.12 in 10.0 mi South 17.3 mph - N/A   Clear
11:55 AM 63.0 °F - 42.8 °F 48% 30.09 in 10.0 mi South 19.6 mph 26.5 mph N/A   Clear
12:55 PM 65.5 °F - 43.3 °F 45% 30.05 in 10.0 mi South 20.7 mph - N/A   Clear
1:55 PM 67.3 °F - 42.1 °F 40% 30.02 in 10.0 mi South 16.1 mph - N/A   Clear
2:55 PM 68.7 °F - 39.9 °F 35% 30.00 in 10.0 mi South 20.7 mph 26.5 mph N/A   Clear
3:55 PM 67.6 °F - 37.9 °F 34% 29.99 in 10.0 mi South 17.3 mph 25.3 mph N/A   Clear
4:55 PM 65.1 °F - 35.1 °F 33% 29.99 in 10.0 mi South 12.7 mph 21.9 mph N/A   Clear
5:55 PM 62.2 °F - 32.9 °F 33% 30.00 in 10.0 mi South 12.7 mph - N/A   Clear
6:55 PM 59.7 °F - 32.7 °F 36% 30.03 in 10.0 mi South 12.7 mph - N/A   Clear
7:55 PM 57.6 °F - 33.3 °F 40% 30.04 in 10.0 mi South 13.8 mph - N/A   Clear
8:55 PM 55.6 °F - 33.6 °F 44% 30.05 in 10.0 mi South 13.8 mph - N/A   Clear
9:55 PM 54.3 °F - 35.8 °F 50% 30.05 in 10.0 mi South 16.1 mph - N/A   Clear
10:55 PM 53.1 °F - 37.9 °F 57% 30.05 in 10.0 mi South 13.8 mph 20.7 mph N/A   Clear
11:55 PM 51.8 °F - 39.7 °F 63% 30.04 in 10.0 mi South 13.8 mph - N/A   Clear